{"data":{"norad_id":67631,"epoch":"2026-09-19T22:04:01.067520Z","epoch_age_seconds":119803,"freshness":"FRESH","line1":"1 67631U 26020Q   26262.91945680  .00011998  00000+0  44483-3 0  9996","line2":"2 67631  43.0006 123.2986 0001020 261.8321  98.2415 15.27579685 35816","mean_motion":15.27579685,"eccentricity":0.000102,"inclination_deg":43.0006,"raan_deg":123.2986,"arg_perigee_deg":261.8321,"mean_anomaly_deg":98.2415,"bstar":0.00044483,"rev_number":3581,"period_min":94.266768152262,"perigee_km":482.35019818513,"apogee_km":483.74988034114,"semimajor_km":6861.1870392631,"source":"CELESTRAK","updated_at":"2026-09-20T09:00:43.613741Z"}}